Location: Black Creek
(40.9000°S, 175.5500°E)
Time: 12:09:23
(UTC+00:00)

Vanguard 3 - Visible Passes

Search period start: 09 December 2025 00:00
Search period end: 19 December 2025 00:00
Orbit: 507 x 3207 km, 33.3° (Epoch: 09 December)

Date Brightness Start Highest point End Pass type
(mag) Time Alt. Az. Time Alt. Az. Time Alt. Az.
09 Dec 9.8 12:18:40 29° NE 12:19:36 29° NE 12:32:11 10° E visible
09 Dec 9.7 14:22:33 23° NW 14:31:39 58° NNE 14:50:01 10° E visible
10 Dec 10.4 11:01:22 13° ENE 11:01:22 13° ENE 11:04:02 10° ENE visible
10 Dec 9.3 13:05:14 36° N 13:08:55 43° NNE 13:24:33 10° E visible
10 Dec 9.8 15:09:07 11° WNW 15:22:17 65° N 15:41:29 10° E visible
11 Dec 9.8 11:47:54 27° NE 11:47:54 27° NE 11:58:26 10° E visible
11 Dec 9.5 13:51:47 29° NW 13:58:52 56° NNE 14:16:21 10° E visible
11 Dec 9.9 15:58:49 10° W 16:13:14 66° N 16:32:41 10° ENE visible
12 Dec 9.2 12:34:27 39° N 12:36:29 41° NNE 12:50:48 10° E visible
12 Dec 9.6 14:38:19 14° WNW 14:49:21 64° N 15:07:55 10° E visible
13 Dec 9.8 11:17:06 23° ENE 11:17:06 23° ENE 11:24:45 10° E visible
13 Dec 9.3 13:20:59 34° NW 13:26:17 55° NNE 13:42:36 10° E visible
13 Dec 9.8 15:27:02 10° W 15:40:08 65° N 15:59:14 10° ENE visible
14 Dec 9.1 12:03:37 39° NNE 12:04:15 39° NNE 12:17:05 10° E visible
14 Dec 9.4 14:07:30 18° WNW 14:16:36 63° N 14:34:12 10° E visible
15 Dec 9.8 10:46:16 19° ENE 10:46:16 19° ENE 10:51:10 10° E visible
15 Dec 9.0 12:50:08 39° NNW 12:53:54 53° NNE 13:08:50 10° E visible
15 Dec 9.5 14:55:24 10° W 15:07:12 64° N 15:25:34 10° ENE visible
16 Dec 9.0 11:32:46 36° NE 11:32:46 36° NE 11:43:26 10° E visible
16 Dec 9.1 13:36:39 22° WNW 13:44:02 61° N 14:00:25 10° E visible
16 Dec 9.8 15:45:18 10° W 15:57:57 58° NNW 16:16:29 10° ENE visible
17 Dec 9.9 10:15:25 14° ENE 10:15:25 14° ENE 10:17:45 10° E visible
17 Dec 8.7 12:19:17 43° NNW 12:21:41 50° NNE 12:35:07 10° E visible
17 Dec 9.3 14:23:55 10° W 14:34:28 62° N 14:51:48 10° ENE visible
18 Dec 9.0 11:01:55 31° NE 11:01:55 31° NE 11:09:57 10° E visible
18 Dec 8.8 13:05:48 25° WNW 13:11:40 59° N 13:26:38 10° E visible
18 Dec 9.6 15:13:41 10° W 15:25:04 56° NNW 15:42:44 10° ENE visible
